Weather History for Erzurum, Turkey

Change the Weather History Date:

Saturday, November 5, 2011

  Actual Average Record
Temperature  
Mean Temperature 32 °F -  
Max Temperature 39 °F 42 °F 60 °F (1998)
Min Temperature 24 °F 26 °F 12 °F (1999)
Degree Days  
Heating Degree Days 32    
Moisture  
Dew Point 32 °F    
Average Humidity 92    
Maximum Humidity 100    
Minimum Humidity 47    
Precipitation  
Precipitation 0.00 in 0.04 in - ()
Sea Level Pressure  
Sea Level Pressure 30.07 in    
Wind  
Wind Speed 12 mph ()    
Max Wind Speed 22 mph    
Max Gust Speed -    
Visibility 5.8 miles    
Events Rain    
Averages and records for this station are not official NWS values.
T = Trace of Precipitation, MM = Missing Value Source: Averaged Metar Reports

Daily Weather History Graph

Daily Weather History Graph

Search for Another Location

Airport:

Trip Planner

Search our weather history database for the weather conditions in past years. The results will help you decide how hot, cold, wet, or windy it might be!

Date:

Astronomy

Nov. 05, 2011 Rise Set
Actual Time 5:48 AM EET 4:09 PM EET
Civil Twilight 5:19 AM EET 4:37 PM EET
Nautical Twilight 4:47 AM EET 5:09 PM EET
Astronomical Twilight 4:16 AM EET 5:41 PM EET
Moon 1:17 PM EET (11/5) 12:37 AM EET (11/5)
Length of Visible Light 11h 17m
Length of Day
10h 20m
Waxing Gibbous, 76% of the Moon is Illuminated
Nov 5
Waxing Gibbous
Nov 10
Full
Nov 18
Last Quarter
Nov 25
New
Dec 2
First Quarter

Hourly Weather History & Observations

Time (EET) Temp. Windchill Dew Point Humidity Pressure Visibility Wind Dir Wind Speed Gust Speed Precip Events Conditions
12:20 AM 33.8 °F 25.3 °F 32.0 °F 93% 30.06 in 6.2 mi ENE 11.5 mph - N/A   Scattered Clouds
12:50 AM 32.0 °F 23.0 °F 30.2 °F 93% 30.06 in 6.2 mi NE 11.5 mph - N/A   Scattered Clouds
1:20 AM 33.8 °F 23.5 °F 30.2 °F 87% 30.06 in 6.2 mi NE 16.1 mph - N/A   Scattered Clouds
1:50 AM 33.8 °F 23.5 °F 30.2 °F 87% 30.06 in 6.2 mi East 16.1 mph - N/A   Scattered Clouds
2:00 AM 35 °F - 22 °F 47%  in 6 mi East 16.1 mph - -   Partly Cloudy
2:20 AM 33.8 °F 24.3 °F 30.2 °F 87% 30.06 in 6.2 mi ENE 13.8 mph - N/A   Scattered Clouds
2:50 AM 33.8 °F 25.3 °F 30.2 °F 87% 30.06 in 6.2 mi ENE 11.5 mph - N/A   Scattered Clouds
3:20 AM 32.0 °F 24.2 °F 30.2 °F 93% 30.06 in 6.2 mi NE 9.2 mph - N/A   Scattered Clouds
3:50 AM 35.6 °F 25.9 °F 32.0 °F 87% 30.06 in 6.2 mi East 16.1 mph - N/A   Scattered Clouds
4:20 AM 33.8 °F 23.5 °F 32.0 °F 93% 30.06 in 6.2 mi ENE 16.1 mph - N/A   Scattered Clouds
4:50 AM 33.8 °F 23.5 °F 33.8 °F 100% 30.06 in 6.2 mi ENE 16.1 mph - N/A   Scattered Clouds
5:20 AM 35.6 °F 25.2 °F 30.2 °F 81% 30.04 in 6.2 mi East 18.4 mph - N/A   Scattered Clouds
5:50 AM 33.8 °F 23.5 °F 32.0 °F 93% 30.06 in 6.2 mi East 16.1 mph - N/A   Scattered Clouds
6:20 AM 35.6 °F 25.9 °F 32.0 °F 87% 30.06 in 6.2 mi East 16.1 mph - N/A   Scattered Clouds
6:50 AM 35.6 °F 26.6 °F 32.0 °F 87% 30.09 in 6.2 mi ENE 13.8 mph - N/A   Scattered Clouds
7:20 AM 37.4 °F 28.9 °F 32.0 °F 81% 30.06 in 6.2 mi East 13.8 mph - N/A   Scattered Clouds
7:50 AM 37.4 °F 27.8 °F 33.8 °F 87% 30.06 in 6.2 mi East 17.3 mph - N/A   Mostly Cloudy
8:00 AM 37 °F - 33 °F 79%  in 12 mi East 17.3 mph - -   Partly Cloudy
8:20 AM 37.4 °F 27.8 °F 32.0 °F 81% 30.06 in 6.2 mi East 17.3 mph - N/A   Mostly Cloudy
8:50 AM 37.4 °F 27.2 °F 33.8 °F 87% 30.09 in 6.2 mi NE 19.6 mph - N/A   Mostly Cloudy
9:20 AM 39.2 °F 29.0 °F 33.8 °F 81% 30.06 in 6.2 mi ENE 21.9 mph - N/A   Mostly Cloudy
9:50 AM 37.4 °F 27.5 °F 33.8 °F 87% 30.06 in 6.2 mi ENE 18.4 mph - N/A   Mostly Cloudy
10:20 AM 39.2 °F 30.5 °F 33.8 °F 81% 30.06 in 6.2 mi ENE 16.1 mph - N/A   Mostly Cloudy
10:50 AM 39.2 °F 30.2 °F 33.8 °F 81% 30.06 in 6.2 mi East 17.3 mph - N/A   Mostly Cloudy
11:20 AM 37.4 °F 29.3 °F 35.6 °F 93% 30.06 in 6.2 mi East 12.7 mph - N/A   Mostly Cloudy
11:50 AM 37.4 °F 28.2 °F 35.6 °F 93% 30.06 in 6.2 mi East 16.1 mph - N/A   Mostly Cloudy
12:20 PM 37.4 °F 29.3 °F 35.6 °F 93% 30.06 in 6.2 mi East 12.7 mph - N/A   Mostly Cloudy
12:50 PM 37.4 °F 28.9 °F 37.4 °F 100% 30.06 in 5.0 mi East 13.8 mph - N/A   Mostly Cloudy
1:20 PM 35.6 °F 26.2 °F 35.6 °F 100% 30.06 in 4.3 mi East 15.0 mph - N/A Rain Light Rain Showers
1:50 PM 35.6 °F 28.6 °F 35.6 °F 100% 30.06 in 4.3 mi East 9.2 mph - N/A   Mostly Cloudy
2:00 PM 35 °F - 35 °F 100%  in 4 mi East 9.2 mph - - Rain Light Rain Showers
2:20 PM 35.6 °F 29.2 °F 35.6 °F 100% 30.06 in 4.3 mi ENE 8.1 mph - N/A   Mostly Cloudy
2:50 PM 35.6 °F 29.2 °F 35.6 °F 100% 30.06 in 3.7 mi East 8.1 mph - N/A   Mostly Cloudy
3:20 PM 37.4 °F 32.8 °F 37.4 °F 100% 30.06 in 4.3 mi East 5.8 mph - N/A   Mostly Cloudy
3:50 PM 35.6 °F 29.9 °F 35.6 °F 100% 30.06 in 4.3 mi East 6.9 mph - N/A   Mostly Cloudy
4:20 PM 35.6 °F 29.2 °F 35.6 °F 100% 30.06 in 4.3 mi East 8.1 mph - N/A   Mostly Cloudy
4:50 PM 35.6 °F 28.6 °F 35.6 °F 100% 30.09 in 4.3 mi ENE 9.2 mph - N/A   Mostly Cloudy
5:20 PM 33.8 °F 27.0 °F 33.8 °F 100% 30.09 in 4.3 mi NE 8.1 mph - N/A   Mostly Cloudy
5:50 PM 33.8 °F 26.4 °F 33.8 °F 100% 30.09 in 4.3 mi ENE 9.2 mph - N/A   Mostly Cloudy
6:20 PM 32.0 °F 24.8 °F 32.0 °F 100% 30.09 in 5.6 mi ENE 8.1 mph - N/A   Mostly Cloudy
6:50 PM 32.0 °F 24.2 °F 30.2 °F 93% 30.09 in - ENE 9.2 mph - N/A   Clear
7:20 PM 33.8 °F 28.6 °F 32.0 °F 93% 30.09 in - ENE 5.8 mph - N/A   Clear
7:50 PM 30.2 °F 25.4 °F 30.2 °F 100% 30.09 in - NE 4.6 mph - N/A   Clear
8:00 PM 31 °F - 30 °F 93%  in 12 mi NE 4.6 mph - -  
8:20 PM 30.2 °F 23.4 °F 28.4 °F 93% 30.09 in - NE 6.9 mph - N/A   Clear
8:50 PM 28.4 °F 24.6 °F 26.6 °F 93% 30.09 in - East 3.5 mph - N/A   Clear
9:20 PM 30.2 °F 26.7 °F 28.4 °F 93% 30.09 in - SSE 3.5 mph - N/A   Clear
9:50 PM 30.2 °F 25.4 °F 28.4 °F 93% 30.09 in - SE 4.6 mph - N/A   Clear
10:20 PM 30.2 °F 26.7 °F 28.4 °F 93% 30.09 in - SSE 3.5 mph - N/A   Clear
10:50 PM 28.4 °F - 26.6 °F 93% 30.09 in - Variable 1.2 mph - N/A   Clear
11:20 PM 26.6 °F - 26.6 °F 100% 30.06 in - Variable 2.3 mph - N/A   Clear
11:50 PM 24.8 °F 17.9 °F 24.8 °F 100% 30.06 in 3.7 mi NW 5.8 mph - N/A   Unknown